GOES 15 [B]

Last updated on Fri Dec 29 2023 00:02:21 GMT+0000 (Coordinated Universal Time)

1 36411U 10008A 23361.88104848 .00000047 00000+0 00000+0 0 9999 2 36411 0.1316 269.1124 0006349 351.5722 213.8927 1.00274802 50595
UTC large
Height (km)
Speed (km/s)
/
Latitude / Longitude
Inclination (degrees)
Orbital Period (minutes)
Azimuth
Elevation
Range (km)
Doppler Factor

Next 0 passes for location: London (51.5072 / 0.1276)

Sorry there are no passes over London.